[[{"header":{"parameterUnit":"m.s-1","parameterCategory":1,"la1":30.2991,"la2":30.254,"lo1":-89.0895,"lo2":-89.0444,"dy":0.0017,"dx":0.0017,"nx":28,"ny":28,"refTime":"2024-04-20T21:00:00:Z","depth":0,"parameterNumber":2,"parameterNumberName":"U-component_of_WINDS"},"data":[0,0,0,0,0,0,0,0,0,0,0,0,0,0,0,0,0,0,0,0,0,0,0,0,0,0,0,0,0,0,0,0,0,0,0,0,0,0,0,0,0,0,0,0,0,0,0,0,0,0,0,0,0,0,0,0,0,0,0.3457,0.3457,0,0.3464,0.3465,0.3465,0.3474,0.3474,0.3474,0.3475,0.3482,0.3482,0.3482,0,0,0,0,0,0,0,0,0,0,0,0,0,0.3451,0.3451,0.3457,0.3457,0.3457,0.3464,0.3465,0.3465,0.3474,0.3474,0.3474,0.3475,0.3482,0.3482,0.3482,0,0,0,0,0,0,0,0,0,0,0,0,0,0.3456,0.3451,0.3457,0.3463,0.3463,0.3464,0.3465,0.3465,0.3474,0.3474,0.3475,0.3475,0.3481,0.3482,0.3482,0.3477,0,0,0.3482,0.3482,0,0,0,0,0,0,0,0,0.3456,0.3456,0.3462,0.3462,0.3463,0.3469,0.3465,0.3469,0.3474,0.347,0.3475,0.3475,0.3477,0.3477,0.3478,0.3478,0.3478,0.3482,0.3482,0.3482,0.3482,0,0,0,0,0,0,0,0.3455,0.3456,0.346,0.3462,0.3463,0.3465,0.3466,0.3466,0.3472,0.347,0.3471,0.3472,0.3477,0.3478,0.3479,0.3478,0.3482,0.3482,0.3482,0.3482,0.3476,0.3476,0,0,0,0,0,0,0.3454,0.3455,0.346,0.346,0.346,0.3465,0.3466,0.3467,0.3472,0.3473,0.3472,0.3472,0.3478,0.3478,0.3479,0.3475,0.3482,0.3482,0.3482,0.3476,0.3476,0.3476,0,0,0,0,0,0,0.3454,0.3454,0.3459,0.3458,0.3459,0.3465,0.3465,0.3467,0.3467,0.3473,0.3474,0.3471,0.3478,0.3479,0.3478,0.3475,0.3482,0.3482,0.3477,0.3476,0.3476,0.3467,0,0,0,0,0,0,0.3454,0.3454,0.3452,0.3458,0.3459,0.3458,0.3465,0.3467,0.3468,0.3468,0.3473,0.3474,0.3478,0.3478,0.3478,0.3476,0.3482,0.3477,0.3476,0.3476,0.3468,0.3467,0.3466,0,0,0,0,0,0.3453,0.3449,0.3452,0.3453,0.3457,0.3458,0.3458,0.3464,0.3467,0.3466,0.347,0.3474,0.3476,0.3478,0.3478,0.3476,0.3477,0.3477,0.3476,0.3468,0.3467,0.3466,0,0,0,0,0,0,0.3442,0.345,0.3453,0.345,0.3454,0.346,0.3457,0.3462,0.3464,0.3465,0.3471,0.3472,0.3471,0.3473,0.3475,0.3473,0.3477,0.3477,0.3471,0.347,0.3469,0.3468,0.3482,0,0,0,0,0,0.3439,0.344,0.3446,0.3443,0.3445,0.3451,0.3452,0.3456,0.3459,0.346,0.3464,0.3467,0.3469,0.3469,0.3471,0.3468,0.347,0.3467,0.3466,0.3465,0.3465,0.3465,0.3464,0.3475,0.3475,0.3475,0,0,0.3433,0.3438,0.3437,0.3441,0.3444,0.3445,0.3452,0.3452,0.3453,0.346,0.346,0.3463,0.3467,0.3466,0.3466,0.3468,0.3462,0.3465,0.3464,0.3464,0.3464,0.3463,0.3462,0.3474,0.3474,0.3474,0,0,0.3423,0.3426,0.3424,0.3428,0.3432,0.3437,0.3437,0.3442,0.3445,0.3445,0.3451,0.3453,0.3455,0.3458,0.3459,0.3453,0.3457,0.3453,0.3447,0.3448,0.3447,0.3446,0.3444,0.3444,0.3453,0.3453,0.3453,0,0.3415,0.3416,0.3423,0.3423,0.3425,0.3433,0.3432,0.3435,0.3439,0.3441,0.3444,0.3448,0.3451,0.3451,0.345,0.3451,0.3451,0.3452,0.3446,0.3446,0.3445,0.3444,0.3443,0.3452,0.3452,0.3452,0.3452,0,0.3406,0.3407,0.3405,0.3411,0.3413,0.3412,0.3419,0.342,0.3425,0.3429,0.343,0.3435,0.3438,0.3439,0.3442,0.344,0.3441,0.3445,0.345,0.3444,0.3442,0.3442,0.3451,0.3452,0.3452,0.3452,0,0,0.3387,0.3398,0.3397,0.34,0.3407,0.3408,0.3409,0.3413,0.3414,0.3417,0.3418,0.3421,0.3425,0.3427,0.3432,0.3432,0.3428,0.3436,0.3437,0.3435,0.3426,0.3423,0.3422,0.3431,0.3431,0.3431,0.3426,0,0.3378,0.3379,0.3387,0.3386,0.3387,0.3396,0.3397,0.3401,0.3406,0.3408,0.3414,0.3416,0.3421,0.3422,0.3423,0.3428,0.3426,0.3429,0.3432,0.3432,0.3431,0.3422,0.3418,0.3413,0.3426,0.3426,0.3426,0,0.3367,0.3371,0.3371,0.338,0.338,0.3381,0.3386,0.3388,0.3394,0.3397,0.3401,0.3406,0.3408,0.3413,0.3416,0.3418,0.342,0.3423,0.3423,0.3423,0.3428,0.3422,0.3412,0.3411,0.3425,0.3425,0.3425,0,0.3354,0.336,0.336,0.3363,0.3372,0.3373,0.3377,0.3383,0.3386,0.339,0.3392,0.3397,0.3399,0.3403,0.341,0.3413,0.3413,0.3418,0.3416,0.3416,0.3415,0.3415,0.3405,0.3416,0.3416,0.3416,0.3416,0,0.3343,0.3343,0.3355,0.3355,0.3356,0.3364,0.3364,0.3369,0.3375,0.3377,0.3385,0.3387,0.3397,0.34,0.3406,0.3408,0.3409,0.3412,0.3414,0.3411,0.3411,0.3412,0.3413,0.3416,0.3416,0.3416,0.3416,0,0.3328,0.3336,0.3338,0.3347,0.335,0.335,0.3358,0.336,0.3366,0.3368,0.3369,0.3379,0.3383,0.3391,0.3397,0.3401,0.3402,0.3405,0.34,0.3401,0.3399,0.34,0.339,0.339,0.3401,0.3401,0.3401,0,0.332,0.332,0.3331,0.3333,0.3337,0.334,0.3343,0.3352,0.3355,0.3363,0.3364,0.3369,0.3373,0.338,0.3388,0.3393,0.3396,0.3392,0.3397,0.3395,0.3396,0.3396,0.3397,0.3391,0.3391,0.3391,0.3391,0,0.3306,0.3311,0.3314,0.3321,0.3324,0.3329,0.3335,0.3336,0.3347,0.335,0.3355,0.3358,0.3366,0.3371,0.3378,0.3383,0.3389,0.339,0.339,0.3387,0.3385,0.3387,0.3398,0.339,0.339,0.339,0.339,0.339,0.3294,0.3296,0.3303,0.3308,0.3314,0.3319,0.3321,0.3328,0.3332,0.3339,0.3345,0.335,0.3357,0.3367,0.3372,0.3376,0.3379,0.3379,0.3379,0.3378,0.3378,0.3384,0.3377,0.3378,0.3378,0.3378,0.3378,0,0.3281,0.3287,0.3291,0.3299,0.3304,0.331,0.3317,0.332,0.3324,0.3331,0.3336,0.3342,0.3348,0.3357,0.3363,0.3365,0.3368,0.3367,0.3367,0.3368,0.3375,0.3374,0.3364,0.3364,0.3364,0.3364,0.3364,0.3364,0.3274,0.3277,0.3283,0.3289,0.3295,0.33,0.3303,0.3309,0.3314,0.3321,0.3327,0.3333,0.3341,0.3348,0.3354,0.3357,0.3359,0.3356,0.336,0.3366,0.3367,0.3368,0.3368,0.3357,0.3357,0.3353,0.3353,0.3353]},{"header":{"parameterUnit":"m.s-1","parameterCategory":1,"la1":30.2991,"la2":30.254,"lo1":-89.0895,"lo2":-89.0444,"dy":0.0017,"dx":0.0017,"nx":28,"ny":28,"refTime":"2024-04-20T21:00:00:Z","depth":0,"parameterNumber":3,"parameterNumberName":"V-component_of_WINDS"},"data":[0,0,0,0,0,0,0,0,0,0,0,0,0,0,0,0,0,0,0,0,0,0,0,0,0,0,0,0,0,0,0,0,0,0,0,0,0,0,0,0,0,0,0,0,0,0,0,0,0,0,0,0,0,0,0,0,0,0,-6.6328,-6.6329,0,-6.6382,-6.6383,-6.6383,-6.6345,-6.6343,-6.6341,-6.634,-6.6389,-6.6392,-6.6395,0,0,0,0,0,0,0,0,0,0,0,0,0,-6.6187,-6.619,-6.6328,-6.6329,-6.6329,-6.6382,-6.6383,-6.6383,-6.6345,-6.6343,-6.6341,-6.6339,-6.6388,-6.6391,-6.6395,0,0,0,0,0,0,0,0,0,0,0,0,0,-6.6245,-6.6191,-6.6328,-6.6317,-6.6316,-6.6382,-6.6383,-6.6383,-6.6345,-6.6343,-6.634,-6.6338,-6.6387,-6.6391,-6.6395,-6.6473,0,0,-6.6409,-6.641,0,0,0,0,0,0,0,0,-6.6242,-6.6251,-6.6318,-6.6318,-6.6317,-6.6354,-6.6351,-6.6413,-6.6346,-6.6334,-6.634,-6.6337,-6.6379,-6.6384,-6.6399,-6.6475,-6.6477,-6.6409,-6.6412,-6.6413,-6.6415,0,0,0,0,0,0,0,-6.6238,-6.6248,-6.6349,-6.6319,-6.6318,-6.6308,-6.6313,-6.6363,-6.637,-6.6335,-6.6332,-6.634,-6.6378,-6.6395,-6.64,-6.6478,-6.6409,-6.6413,-6.6415,-6.6417,-6.6622,-6.6625,0,0,0,0,0,0,-6.6236,-6.6245,-6.6347,-6.6351,-6.6273,-6.6312,-6.6318,-6.6345,-6.6369,-6.6371,-6.6342,-6.6338,-6.6389,-6.6395,-6.6402,-6.6496,-6.6413,-6.6417,-6.642,-6.6619,-6.6623,-6.6626,0,0,0,0,0,0,-6.6233,-6.6245,-6.6345,-6.6297,-6.6309,-6.6317,-6.6347,-6.6347,-6.6364,-6.6375,-6.6375,-6.6358,-6.6387,-6.6396,-6.6456,-6.6497,-6.6419,-6.6423,-6.6616,-6.662,-6.6624,-6.6683,0,0,0,0,0,0,-6.6229,-6.6245,-6.6275,-6.6298,-6.6312,-6.64,-6.635,-6.635,-6.6372,-6.6367,-6.639,-6.6391,-6.6386,-6.645,-6.6461,-6.6501,-6.6427,-6.6612,-6.6618,-6.6623,-6.6678,-6.6689,-6.6699,0,0,0,0,0,-6.6224,-6.6288,-6.6277,-6.6289,-6.635,-6.6403,-6.641,-6.6405,-6.6376,-6.6406,-6.6413,-6.639,-6.6491,-6.6457,-6.6468,-6.6511,-6.661,-6.6616,-6.6623,-6.6673,-6.6687,-6.6698,0,0,0,0,0,0,-6.6266,-6.629,-6.6279,-6.6352,-6.6376,-6.6396,-6.6434,-6.6419,-6.645,-6.6444,-6.6434,-6.644,-6.6504,-6.6513,-6.6475,-6.6588,-6.6545,-6.6554,-6.658,-6.6593,-6.6603,-6.6599,-6.643,0,0,0,0,0,-6.6284,-6.6327,-6.6345,-6.6407,-6.642,-6.6426,-6.6448,-6.6442,-6.6466,-6.6475,-6.6486,-6.6509,-6.6545,-6.6569,-6.6604,-6.6679,-6.6684,-6.6714,-6.6724,-6.6733,-6.6741,-6.6783,-6.6797,-6.6647,-6.6647,-6.6647,0,0,-6.6321,-6.634,-6.6366,-6.6416,-6.6434,-6.6477,-6.6434,-6.648,-6.6512,-6.6481,-6.654,-6.655,-6.6574,-6.6643,-6.6674,-6.6653,-6.6783,-6.6741,-6.6748,-6.6751,-6.6791,-6.6805,-6.6818,-6.6651,-6.6651,-6.665,0,0,-6.6411,-6.6429,-6.6484,-6.6504,-6.6533,-6.6537,-6.655,-6.6573,-6.6579,-6.6639,-6.6618,-6.6654,-6.6717,-6.6736,-6.6754,-6.6854,-6.6834,-6.6865,-6.6919,-6.6961,-6.6972,-6.6983,-6.7019,-6.7032,-6.6873,-6.6873,-6.6873,0,-6.6452,-6.6518,-6.6514,-6.6563,-6.6586,-6.6563,-6.6619,-6.6638,-6.6675,-6.6691,-6.6667,-6.6748,-6.6762,-6.6836,-6.6861,-6.6876,-6.6891,-6.6862,-6.6971,-6.6982,-6.6991,-6.7026,-6.704,-6.6877,-6.6876,-6.6876,-6.6875,0,-6.6568,-6.6614,-6.6655,-6.6696,-6.6723,-6.6775,-6.6778,-6.6806,-6.6798,-6.6804,-6.6865,-6.6883,-6.6921,-6.6938,-6.6929,-6.7011,-6.6998,-6.6973,-6.693,-6.7009,-6.7042,-6.7055,-6.6882,-6.688,-6.6879,-6.6878,0,0,-6.6683,-6.6724,-6.6739,-6.6758,-6.679,-6.6824,-6.6876,-6.6916,-6.694,-6.6967,-6.701,-6.7065,-6.7044,-6.7064,-6.7058,-6.7094,-6.7174,-6.7065,-6.7065,-6.7085,-6.7266,-6.7285,-6.73,-6.7161,-6.7164,-6.7166,-6.7264,0,-6.6775,-6.6868,-6.6867,-6.6951,-6.6994,-6.6975,-6.7019,-6.7043,-6.705,-6.7086,-6.7093,-6.7134,-6.7101,-6.7114,-6.7149,-6.7157,-6.721,-6.7149,-6.72,-6.7202,-6.7195,-6.7317,-6.7336,-6.7428,-6.7277,-6.7279,-6.728,0,-6.6895,-6.693,-6.702,-6.7048,-6.7066,-6.7106,-6.7144,-6.7179,-6.7206,-6.7208,-6.7233,-6.7222,-6.7273,-6.723,-6.73,-6.7259,-6.728,-6.7287,-6.7291,-6.7295,-6.7246,-6.7325,-6.7457,-6.7471,-6.73,-6.7299,-6.7297,0,-6.6971,-6.704,-6.7104,-6.7121,-6.7154,-6.7184,-6.7199,-6.7223,-6.7248,-6.728,-6.7296,-6.7333,-6.7354,-6.7382,-6.7381,-6.7349,-6.7453,-6.7409,-6.7456,-6.7457,-6.7479,-6.7477,-6.7617,-6.7492,-6.7492,-6.7491,-6.7491,0,-6.7074,-6.713,-6.7139,-6.7178,-6.7241,-6.7239,-6.73,-6.7312,-6.7334,-6.7374,-6.7358,-6.7396,-6.7392,-6.743,-6.7429,-6.7489,-6.7497,-6.7501,-6.75,-6.7503,-6.7502,-6.7516,-6.7509,-6.7495,-6.7494,-6.7493,-6.7493,0,-6.717,-6.7178,-6.7246,-6.7274,-6.7282,-6.7327,-6.735,-6.7387,-6.7394,-6.7445,-6.7457,-6.7467,-6.7511,-6.7513,-6.7562,-6.7562,-6.7635,-6.7626,-6.7627,-6.7625,-6.7673,-6.7669,-6.7826,-6.7847,-6.7708,-6.7709,-6.771,0,-6.7235,-6.7278,-6.7312,-6.734,-6.7357,-6.7401,-6.7427,-6.7427,-6.7455,-6.749,-6.7523,-6.7566,-6.76,-6.7671,-6.7682,-6.772,-6.7713,-6.7766,-6.7719,-6.7721,-6.7715,-6.7713,-6.7717,-6.7775,-6.7776,-6.7778,-6.7779,0,-6.7351,-6.7354,-6.7394,-6.7436,-6.7469,-6.7501,-6.7532,-6.7554,-6.7558,-6.759,-6.7636,-6.7663,-6.7716,-6.7759,-6.7797,-6.781,-6.7795,-6.7794,-6.7807,-6.781,-6.7809,-6.7811,-6.7652,-6.779,-6.7789,-6.7788,-6.7787,-6.7787,-6.7433,-6.7472,-6.7503,-6.7548,-6.7572,-6.7601,-6.7638,-6.7651,-6.7691,-6.7736,-6.7733,-6.7784,-6.7811,-6.7861,-6.7878,-6.7917,-6.7899,-6.7918,-6.7923,-6.7927,-6.7933,-6.7803,-6.7924,-6.7924,-6.7923,-6.7923,-6.7923,0,-6.7549,-6.7569,-6.7611,-6.7656,-6.7692,-6.7677,-6.7711,-6.7741,-6.7788,-6.7815,-6.7851,-6.7905,-6.7947,-6.7962,-6.8003,-6.8032,-6.8026,-6.8043,-6.8041,-6.8044,-6.7947,-6.7932,-6.8047,-6.8047,-6.8047,-6.8047,-6.8047,-6.8047,-6.7613,-6.7678,-6.7685,-6.7762,-6.778,-6.7833,-6.7854,-6.7881,-6.7903,-6.7965,-6.8001,-6.8012,-6.8035,-6.8078,-6.8116,-6.8119,-6.8135,-6.8155,-6.8155,-6.8063,-6.8051,-6.8039,-6.8025,-6.8158,-6.8158,-6.825,-6.8251,-6.8251]}]]